Temp_Advection
nan nan nan nan nan nan nan nan nan nan nan nan nan nan nan nan nan nan nan nan nan nan nan nan nan nan nan nan nan nan nan nan nan nan nan nan nan nan nan nan nan nan
nan -1 -1 -1 -1 -1 -1 -1 -0 -0 -0 -0 -0 -0 -0 -0 -0 0 0 0 0 0 -0 -0 -0 0 0 0 0 0 0 0 0 1 1 0 1 1 0 1 1 nan
nan -1 -1 -0 -1 -1 -0 -0 -1 -0 -0 -1 -1 -1 -1 -0 -0 -0 -0 -0 -0 0 0 -0 -0 0 0 0 0 0 0 0 0 0 0 0 0 0 0 0 0 nan
nan -1 -1 -1 -1 -1 -0 -0 -0 -1 -0 -1 -1 -1 -1 -1 -0 -0 -0 -0 0 -0 0 0 -0 -0 0 0 0 0 0 1 1 0 0 0 0 0 0 0 0 nan
nan -1 -1 -1 -1 -1 -1 -1 -0 -0 -0 -0 -0 -0 -1 -1 -0 -0 -1 -0 -0 -0 -0 0 0 0 -0 -0 0 0 0 0 0 0 0 0 0 0 0 0 0 nan
nan -2 -1 -1 -1 -1 -1 -1 -1 -1 -1 -0 -0 -0 -0 -0 -0 -1 -1 -0 -0 -0 -0 -0 0 0 0 0 0 0 0 0 0 0 0 0 0 0 1 1 0 nan
nan -4 -3 -2 -1 -1 -1 -1 -1 -1 -1 -1 -0 -0 -0 -0 -0 -0 -0 -0 -0 -0 -0 -0 -0 -0 0 0 0 0 0 0 0 -0 -0 0 0 0 1 0 0 nan
nan -2 -4 -3 -2 -2 -1 -1 -1 -1 -1 -1 -1 -1 -1 -0 -0 -0 -0 -0 -0 -0 -0 -0 -0 -0 -0 0 0 0 0 0 0 0 -0 0 0 0 0 0 0 nan
nan 0 -2 -3 -3 -2 -2 -2 -1 -1 -1 -1 -1 -1 -1 -1 -1 -1 -0 -0 -0 -0 -0 -0 -0 -0 -0 -0 0 0 0 0 0 0 0 0 0 0 0 0 -0 nan
nan 0 -0 -2 -2 -2 -2 -2 -1 -1 -1 -1 -1 -1 -1 -1 -1 -1 -1 -0 -0 -0 -0 -0 -0 -0 -0 -0 0 0 0 0 0 0 0 0 0 0 0 -0 -0 nan
nan 0 -0 -1 -2 -1 -2 -2 -1 -1 -2 -2 -1 -1 -1 -1 -1 -1 -1 -0 -0 -0 -0 -0 -0 -0 -0 -0 -0 -0 -0 -0 -0 0 0 0 0 0 0 -0 -0 nan
nan 0 0 -1 -2 -2 -1 -1 -1 -1 -1 -2 -2 -1 -1 -1 -1 -1 -1 -0 -1 -0 -0 -0 -0 -0 -0 -0 -0 -0 -0 -0 -0 -0 0 0 0 0 0 -0 -0 nan
nan 1 1 -1 -3 -2 -1 -1 -1 -1 -1 -1 -2 -2 -1 -1 -1 -1 -1 -1 -1 -1 -0 -1 -0 -0 -0 -0 -0 -0 -0 -0 -0 -0 -0 -0 0 -0 -0 -0 -0 nan
nan 0 1 0 -2 -2 -1 -1 -1 -1 -1 -1 -1 -1 -1 -1 -1 -1 -1 -0 -0 -1 -1 -0 -0 -0 -0 -0 -0 0 0 0 -0 -0 -0 -0 -0 -0 -0 -0 -0 nan
nan 0 1 1 -1 -1 -1 -1 -1 -1 -1 -1 -1 -1 -1 -1 -1 -1 -1 -0 -0 -0 -0 -0 -0 -0 -0 -0 -0 0 0 0 -0 -0 -0 -0 -0 -0 -0 -0 -0 nan
nan 0 -0 -0 -0 -0 -0 -0 -0 -0 -1 -1 -1 -1 -1 -1 -1 -1 -1 -1 -0 -0 -0 -0 -0 -0 -0 -0 0 0 0 -0 -0 -0 -0 -0 -0 -0 -0 -0 -0 nan
nan 1 -0 -1 -1 -0 0 0 -0 -0 -0 -1 -1 -0 -0 -0 -0 -0 -0 -1 -1 -0 -0 -0 -0 -0 0 0 0 0 -0 -0 -0 -0 -0 -0 -0 -0 -0 0 0 nan
nan 0 -0 -1 -1 -0 0 0 0 -0 -0 -0 -0 -0 -0 -0 -0 -0 -0 -0 -0 -0 -0 -0 -0 -0 -0 -0 0 0 0 -0 -0 -0 -0 -0 -1 -0 -0 0 0 nan
nan 0 -0 -1 -0 -0 -0 0 0 0 -0 -0 -0 -0 -0 -0 -0 -0 -0 -0 -0 -0 -0 -0 -0 -0 0 0 0 0 -0 -0 -0 -0 -0 -0 -1 -0 -0 -0 -0 nan
nan 0 -0 -0 -0 -0 -0 0 0 0 -0 -0 -0 -0 -0 -0 -0 -0 -0 -0 -0 -0 -0 -0 -0 -0 0 0 0 0 0 0 -0 -0 -1 -1 -0 -0 -0 0 -0 nan
nan 0 -0 -0 -0 0 0 0 -0 -0 -0 -0 -0 -0 -0 -0 -0 -0 -0 -0 -0 -0 -0 -0 -0 -0 -0 -0 0 0 0 -0 -0 0 -1 -1 -0 0 0 -0 -1 nan
nan -0 -0 -0 -0 0 0 0 -0 -0 -0 -0 -0 -0 -0 -0 -0 -0 -0 -0 -0 -0 -0 -0 -0 -0 -0 -0 0 0 -0 -1 -0 1 -0 -1 -0 -0 -0 -1 -1 nan
nan 0 -0 -0 -0 0 0 0 -0 -0 -0 -0 -0 -0 -0 -0 -0 -0 -0 -0 -0 -0 -0 -0 -0 -0 -0 -0 0 0 -0 -1 -1 0 -1 -1 -0 -0 -1 -1 -1 nan
nan 0 -0 -0 0 0 0 0 -0 -0 -0 -0 -0 -0 -0 -0 -0 -0 -0 -0 -0 -0 -0 -0 -0 -0 -0 -0 -0 0 0 -1 -1 -0 -1 -1 -0 -0 -0 -0 -0 nan
nan 0 0 0 0 0 -0 0 -0 -0 -0 -0 -0 -0 -0 -0 -0 -0 -0 -0 -0 -0 -0 -0 -0 -0 -0 -0 -0 0 0 -0 -1 -0 -0 -1 -0 0 0 0 -0 nan
nan nan nan nan nan nan nan nan nan nan nan nan nan nan nan nan nan nan nan nan nan nan nan nan nan nan nan nan nan nan nan nan nan nan nan nan nan nan nan nan nan nan
Wind_Speed
16 15 14 12 11 11 11 10 11 11 12 14 16 17 19 20 21 22 22 22 22 22 24 24 24 24 25 25 25 26 27 28 28 28 28 29 30 30 32 32 31 31
18 17 16 15 14 13 13 12 12 12 11 12 13 14 16 18 19 20 22 22 23 23 24 24 24 24 25 25 25 25 26 28 29 29 28 30 30 30 31 31 31 31
20 19 18 17 17 16 15 14 14 14 14 14 14 15 15 16 16 16 17 19 20 21 22 23 24 25 25 26 27 28 28 28 29 29 29 31 32 33 33 32 32 32
22 21 20 19 18 18 17 17 16 16 16 16 16 16 17 17 16 16 16 17 17 17 18 19 20 21 22 24 25 27 29 29 30 29 29 30 30 31 32 32 32 31
24 23 22 21 19 19 18 18 18 19 18 18 18 18 18 19 18 18 18 18 17 17 17 17 17 17 18 19 21 23 25 26 28 29 30 31 29 29 30 29 30 31
23 23 24 23 21 20 20 19 19 20 20 20 19 19 19 20 20 20 20 20 19 19 19 19 18 18 18 18 18 19 21 22 24 26 28 30 30 29 28 27 29 30
19 21 24 24 23 22 21 20 20 20 20 20 20 20 21 21 20 21 21 21 21 20 20 21 21 20 20 19 19 19 19 20 21 23 25 26 27 27 27 26 27 28
16 17 22 23 23 23 22 21 21 20 20 20 20 20 20 21 21 21 21 21 21 21 21 22 22 22 22 22 21 21 21 21 21 22 23 23 24 25 25 24 26 27
16 16 21 23 25 25 23 22 21 21 21 20 20 19 19 19 20 20 20 21 21 21 21 22 22 22 23 23 23 23 23 23 23 23 23 23 23 23 23 22 25 27
16 16 20 24 26 26 25 24 23 22 22 21 20 19 19 19 19 19 19 19 20 20 20 21 21 22 22 22 22 23 24 24 24 24 24 24 24 23 22 22 25 27
18 15 17 22 26 27 25 24 23 22 22 21 21 20 20 19 19 19 19 18 19 19 19 20 20 20 20 20 20 21 22 23 23 24 24 24 24 24 24 25 25 26
19 15 16 21 27 29 26 25 24 22 20 20 21 21 20 19 19 19 18 18 18 18 19 19 19 19 19 19 19 19 20 21 21 22 22 22 22 22 22 23 23 24
19 17 16 21 29 31 28 26 24 22 20 20 20 20 19 19 19 18 18 18 17 17 18 18 18 18 17 17 18 18 18 18 18 18 19 19 19 19 19 20 20 21
18 18 17 20 29 33 29 27 24 22 21 20 20 20 19 18 18 18 18 17 17 17 16 16 16 15 15 16 16 16 15 14 14 15 16 17 17 17 17 17 17 18
17 19 20 24 30 33 30 28 25 23 22 20 20 20 19 18 17 17 17 17 16 16 15 15 14 14 13 14 14 13 12 12 12 13 15 16 17 16 16 16 16 16
16 17 20 27 32 33 31 28 26 24 22 20 19 19 18 17 17 16 16 16 15 14 14 13 13 12 12 12 12 10 9 10 12 14 14 16 17 18 17 17 19 20
14 13 17 26 32 32 31 29 26 24 22 21 19 18 17 16 16 15 15 14 13 12 12 12 11 11 11 11 12 11 9 10 14 15 15 16 18 18 19 20 22 24
13 12 17 28 33 32 31 29 26 24 22 21 19 17 16 15 15 15 14 13 12 11 10 10 9 9 10 11 11 11 8 10 15 17 16 17 19 20 21 23 24 24
12 13 21 31 33 32 31 29 25 24 22 21 20 18 17 15 14 14 13 12 11 10 10 9 8 8 9 9 9 8 6 10 15 17 16 18 20 22 23 23 23 23
15 19 26 33 34 32 31 27 24 23 22 21 20 18 17 16 14 13 13 12 10 10 9 8 8 8 8 8 8 7 7 9 13 16 18 19 20 19 19 18 18 20
21 25 29 33 34 33 30 26 24 22 21 20 19 18 16 15 14 13 13 11 10 10 9 8 8 7 7 8 9 9 10 13 15 16 18 18 18 17 15 13 14 16
25 28 31 34 34 32 28 25 23 21 20 19 18 16 15 15 14 13 13 11 10 10 9 8 8 7 7 9 9 9 12 15 16 14 15 16 16 15 13 12 14 16
28 29 31 34 33 30 27 23 22 21 19 18 17 15 14 14 13 13 12 11 10 10 9 8 8 8 8 8 9 9 11 14 15 13 13 14 13 11 11 13 15 16
29 29 32 34 32 28 25 22 20 19 18 17 16 15 13 13 12 12 11 11 11 10 9 9 8 9 9 9 10 10 11 13 14 13 13 13 11 8 10 13 14 15
29 30 32 33 29 25 23 20 19 18 17 16 14 13 12 12 11 10 10 10 11 10 10 9 9 9 10 10 11 10 10 13 14 13 12 11 9 8 10 11 13 16
29 31 32 31 26 23 21 19 17 17 15 14 13 11 11 11 10 10 10 10 11 10 10 11 11 11 11 11 11 11 10 12 13 11 9 8 8 10 12 14 17 20
Wind_Direction
336 334 331 329 323 319 316 311 307 303 294 286 278 273 269 267 268 268 267 266 265 265 266 266 265 265 266 266 266 266 265 264 263 262 261 262 262 261 261 261 260 260
333 329 326 322 318 313 310 307 303 301 296 291 286 281 277 274 272 270 268 267 264 262 263 263 261 259 258 258 258 257 256 256 255 253 251 253 253 253 255 256 255 254
332 328 323 319 315 312 308 305 301 297 294 290 286 284 281 278 276 273 270 268 268 266 265 263 262 260 257 255 253 252 251 251 251 251 250 250 250 250 251 251 251 250
334 329 325 319 314 310 307 303 300 296 293 290 288 286 283 280 277 274 271 269 268 268 266 265 264 263 260 257 255 254 253 251 250 249 249 249 249 250 251 250 249 248
333 330 327 322 317 311 306 303 299 295 293 290 287 286 283 281 279 276 273 271 269 268 268 267 266 265 265 263 260 258 257 255 254 252 251 250 249 249 251 250 249 249
332 330 328 323 319 316 310 305 301 297 294 290 288 286 283 281 279 277 275 273 272 270 269 267 265 264 264 264 263 262 261 260 259 257 255 255 254 253 252 251 252 253
330 329 329 324 320 317 313 309 305 301 297 293 290 287 284 282 279 277 276 274 273 271 270 267 265 263 261 261 261 261 262 262 261 261 261 260 259 258 255 253 254 256
327 326 326 326 324 319 315 312 307 305 302 298 295 290 286 284 281 279 277 275 274 272 270 268 267 266 263 261 260 259 258 259 259 261 262 262 262 260 258 255 255 256
321 323 321 324 329 324 318 315 311 308 306 302 299 295 291 288 285 283 281 278 276 273 271 269 268 266 265 263 262 261 260 260 259 259 260 260 260 260 259 258 258 259
316 319 313 315 326 327 320 318 315 312 309 305 303 300 296 294 291 288 286 283 281 278 275 273 271 269 267 265 264 263 262 262 261 261 260 260 259 259 260 260 259 260
316 314 308 310 323 328 322 319 317 314 310 307 306 303 299 297 294 291 289 286 283 281 279 278 277 275 273 271 268 265 264 263 263 262 262 262 262 262 263 264 264 264
317 315 310 312 324 328 323 320 319 314 310 307 306 304 300 298 296 293 291 287 284 282 280 279 278 277 278 277 275 272 269 268 267 266 266 265 266 267 267 267 266 265
316 315 312 313 323 327 324 321 319 313 309 307 304 303 301 298 296 293 291 288 285 283 281 279 279 278 278 277 276 276 276 275 275 274 272 270 267 266 266 266 266 265
313 315 311 311 321 325 323 322 319 312 308 305 302 302 301 298 296 293 291 289 287 286 283 281 280 278 276 274 273 274 275 278 282 282 279 275 271 268 266 265 265 264
309 312 311 312 319 323 322 320 317 311 307 304 301 300 299 298 295 293 291 290 289 287 286 286 282 278 275 271 268 269 271 276 281 283 282 280 276 272 267 263 261 259
306 309 310 314 319 321 320 318 314 309 306 303 300 298 297 296 294 293 292 291 290 289 287 286 283 280 275 268 264 262 263 271 274 273 274 276 274 272 268 265 263 264
303 303 307 315 319 319 318 316 311 307 304 301 300 298 296 295 294 294 293 292 293 292 289 285 281 278 272 265 264 257 255 277 283 276 274 273 271 271 272 270 271 273
299 298 309 319 320 317 316 314 308 304 301 299 299 298 296 294 294 294 293 294 296 293 290 287 282 278 269 264 268 263 264 296 296 286 283 280 275 274 274 275 279 283
293 298 314 321 320 316 315 312 306 302 299 298 298 297 296 295 294 294 293 294 296 292 289 286 282 278 269 265 269 266 275 306 301 288 282 280 278 279 281 282 284 285
294 303 314 320 319 316 313 309 303 299 297 297 298 297 297 297 295 295 295 295 295 293 290 289 284 279 272 268 267 263 270 290 292 285 282 282 284 287 289 288 287 288
294 303 312 317 318 315 310 306 301 297 296 297 297 296 297 298 297 296 296 297 298 295 293 294 292 288 283 276 271 272 275 274 273 279 287 291 294 299 300 297 295 296
293 302 310 315 316 313 308 304 300 297 296 296 295 295 296 295 296 296 297 298 299 299 299 301 302 300 295 287 281 287 290 284 282 289 295 297 303 309 310 306 304 301
295 303 311 314 314 310 305 302 299 297 296 295 295 295 295 294 294 295 298 300 302 305 308 313 316 310 304 297 291 294 299 297 299 305 305 305 314 317 307 304 306 304
297 305 312 314 311 306 302 300 297 296 295 295 296 295 294 293 293 295 299 301 305 312 317 323 326 319 313 308 301 302 307 306 307 310 308 314 323 311 295 301 304 301
298 307 314 313 307 303 301 298 296 295 294 294 295 294 294 292 293 297 301 303 308 317 323 325 326 320 312 308 306 308 310 309 310 312 314 321 320 296 288 298 297 294
300 310 313 310 304 301 299 298 296 294 294 294 293 291 291 291 293 298 301 305 311 318 323 323 321 316 310 307 309 309 307 312 319 320 317 313 295 278 281 289 290 292
Height
1464 1462 1461 1460 1459 1457 1456 1455 1454 1453 1452 1451 1451 1450 1450 1449 1449 1448 1448 1448 1448 1448 1448 1448 1448 1448 1448 1448 1449 1450 1450 1451 1451 1452 1452 1452 1453 1453 1454 1455 1457 1457
1463 1462 1461 1459 1458 1456 1455 1454 1453 1452 1451 1450 1449 1448 1447 1447 1446 1446 1445 1445 1445 1445 1445 1445 1445 1445 1445 1446 1446 1447 1447 1448 1449 1449 1450 1450 1450 1451 1451 1452 1453 1454
1462 1461 1460 1459 1457 1455 1454 1452 1451 1450 1449 1448 1447 1446 1445 1445 1444 1444 1443 1442 1442 1442 1442 1442 1442 1442 1442 1442 1443 1443 1444 1444 1445 1446 1447 1446 1447 1448 1448 1449 1450 1451
1462 1460 1459 1458 1456 1454 1452 1451 1449 1448 1447 1446 1445 1444 1443 1443 1442 1442 1441 1439 1439 1439 1439 1439 1439 1439 1439 1439 1439 1439 1440 1441 1441 1442 1443 1443 1443 1444 1444 1445 1446 1447
1461 1459 1458 1456 1454 1452 1451 1449 1448 1446 1445 1444 1443 1442 1441 1441 1440 1439 1438 1437 1436 1436 1436 1436 1436 1436 1436 1435 1436 1436 1436 1437 1438 1439 1439 1439 1440 1440 1440 1441 1441 1442
1459 1458 1456 1454 1452 1450 1449 1447 1446 1444 1443 1442 1441 1440 1439 1438 1438 1437 1436 1435 1434 1434 1433 1433 1433 1433 1433 1432 1432 1433 1433 1434 1434 1435 1435 1435 1436 1436 1437 1437 1437 1438
1458 1455 1454 1452 1450 1449 1447 1445 1443 1442 1440 1439 1438 1437 1436 1435 1435 1434 1433 1432 1431 1431 1431 1430 1430 1430 1430 1429 1429 1429 1430 1430 1431 1431 1431 1431 1432 1432 1433 1433 1433 1433
1457 1454 1451 1450 1448 1447 1445 1443 1441 1439 1438 1437 1436 1435 1434 1433 1432 1431 1430 1429 1428 1428 1428 1427 1427 1427 1426 1426 1426 1426 1426 1427 1428 1428 1428 1428 1428 1428 1429 1429 1429 1429
1456 1454 1451 1448 1446 1445 1443 1441 1440 1438 1437 1435 1434 1433 1431 1430 1429 1428 1427 1426 1425 1425 1424 1424 1424 1423 1423 1423 1423 1423 1423 1424 1424 1424 1424 1424 1424 1424 1425 1425 1425 1425
1454 1453 1451 1447 1445 1443 1441 1440 1438 1436 1435 1433 1432 1430 1429 1427 1426 1425 1424 1423 1422 1422 1421 1421 1420 1420 1420 1419 1420 1420 1420 1420 1420 1420 1421 1421 1420 1420 1421 1421 1421 1421
1453 1451 1449 1446 1443 1442 1439 1437 1436 1434 1432 1430 1429 1427 1426 1424 1423 1422 1421 1420 1419 1418 1418 1417 1417 1416 1416 1416 1416 1416 1416 1416 1416 1417 1417 1417 1417 1417 1417 1417 1417 1417
1451 1449 1447 1444 1441 1439 1437 1435 1433 1431 1430 1428 1426 1424 1423 1421 1420 1419 1418 1417 1416 1416 1415 1414 1413 1413 1413 1412 1412 1412 1412 1413 1413 1413 1413 1413 1413 1413 1413 1414 1414 1414
1450 1447 1445 1442 1439 1437 1435 1433 1431 1429 1427 1425 1423 1421 1420 1419 1418 1416 1415 1414 1414 1413 1412 1411 1411 1411 1410 1410 1409 1409 1409 1410 1410 1410 1410 1410 1410 1410 1410 1410 1411 1411
1448 1446 1443 1440 1436 1434 1432 1430 1428 1427 1425 1423 1421 1419 1418 1416 1415 1414 1413 1412 1411 1410 1410 1409 1409 1408 1408 1407 1407 1407 1407 1407 1407 1407 1407 1406 1407 1406 1407 1407 1407 1407
1445 1443 1440 1437 1434 1432 1430 1428 1426 1424 1422 1421 1419 1417 1415 1414 1413 1411 1410 1409 1409 1408 1407 1406 1406 1406 1405 1405 1405 1405 1405 1404 1404 1404 1403 1403 1403 1403 1403 1403 1403 1403
1442 1440 1437 1434 1432 1429 1427 1425 1423 1421 1419 1418 1416 1415 1413 1411 1410 1409 1408 1407 1406 1406 1405 1404 1403 1403 1403 1402 1402 1402 1402 1402 1401 1401 1401 1400 1400 1399 1400 1400 1400 1400
1439 1437 1435 1432 1430 1427 1425 1422 1420 1418 1417 1415 1414 1412 1411 1409 1408 1406 1406 1405 1404 1404 1403 1402 1401 1401 1400 1400 1400 1400 1400 1399 1398 1397 1397 1397 1396 1396 1397 1397 1397 1396
1436 1434 1432 1429 1427 1425 1422 1420 1418 1416 1414 1413 1411 1410 1408 1407 1406 1404 1404 1403 1402 1402 1401 1400 1399 1399 1398 1398 1398 1398 1398 1397 1395 1394 1394 1394 1393 1394 1394 1394 1393 1393
1432 1430 1428 1426 1424 1422 1419 1417 1415 1413 1412 1410 1409 1408 1406 1405 1404 1402 1402 1401 1400 1400 1399 1398 1398 1397 1396 1396 1396 1396 1396 1395 1392 1391 1391 1391 1391 1392 1391 1391 1391 1390
1429 1427 1425 1423 1421 1419 1416 1415 1413 1411 1409 1408 1406 1405 1403 1402 1401 1400 1400 1399 1399 1398 1397 1396 1396 1395 1394 1394 1393 1393 1393 1392 1390 1388 1389 1389 1389 1389 1389 1388 1388 1387
1426 1423 1422 1420 1418 1416 1413 1412 1410 1408 1407 1405 1404 1403 1401 1400 1399 1398 1398 1397 1396 1396 1395 1394 1393 1393 1392 1392 1391 1391 1390 1388 1387 1387 1387 1387 1387 1387 1386 1386 1385 1385
1422 1420 1418 1417 1415 1413 1410 1409 1407 1406 1404 1403 1402 1401 1400 1398 1397 1397 1396 1395 1394 1393 1393 1392 1391 1391 1390 1390 1389 1389 1387 1386 1385 1386 1385 1385 1385 1384 1384 1384 1384 1383
1419 1417 1415 1413 1411 1409 1408 1406 1405 1403 1402 1401 1400 1399 1398 1397 1396 1395 1394 1393 1392 1392 1391 1390 1390 1389 1388 1388 1387 1387 1385 1384 1384 1384 1383 1383 1383 1383 1383 1383 1382 1381
1416 1414 1412 1410 1408 1406 1405 1403 1402 1401 1400 1399 1398 1397 1396 1395 1394 1393 1392 1391 1391 1390 1389 1389 1388 1387 1387 1386 1385 1385 1384 1382 1382 1382 1382 1381 1382 1382 1382 1381 1380 1379
1412 1410 1409 1407 1405 1403 1402 1401 1400 1399 1398 1397 1396 1395 1394 1393 1392 1392 1391 1390 1389 1389 1388 1387 1387 1386 1385 1385 1384 1384 1383 1381 1380 1380 1380 1380 1380 1380 1380 1379 1378 1377
1409 1407 1405 1404 1402 1400 1399 1398 1397 1396 1396 1395 1394 1393 1393 1392 1391 1390 1389 1389 1388 1387 1387 1386 1385 1385 1384 1384 1383 1382 1381 1380 1379 1379 1379 1379 1378 1378 1378 1377 1375 1374